Location: Bennemühlen
(52.5740°N, 9.7135°E)
Time: 16:30:14
(UTC+00:00)

Tiros 1 despin weight - Pass Details

Date: 25 February 2026
Orbit: 556 x 593 km, 48.2° (Epoch: 11 March)

Event Time Altitude Azimuth Distance (km) Brightness Sun altitude
Rises 12:24:24 0° 231° (SW) 2,754 ? 27.5°
Reaches altitude 10° 12:26:50 10° 221° (SW) 1,854 ? 27.4°
Maximum altitude 12:30:34 31° 159° (SSE) 1,005 ? 27.3°
Drops below altitude 10° 12:34:17 10° 97° (E) 1,844 ? 27.1°
Sets 12:36:42 0° 87° (E) 2,738 ? 27.0°
